sat.trackr.live / text

‹ back to catalog

STARLINK-37478

NORAD 69260 · 2026-117Y

PAYLOAD ACTIVE UNKNOWN

§ Identity

Operator
Country
US
Launch date
2026-05-29
Launch site
AFETR
Launch vehicle
Mass (kg)
RCS (m²)

Purposes: comms

External: N2YO · Heavens-Above · Gunter

§ Orbital elements

Epoch: 2026-09-19T04:46:15.899232Z

Period
93.85 min
Inclination
53.1566°
Eccentricity
0.0001143
Mean motion
15.34415453 rev/d
Perigee alt
461.9 km
Apogee alt
463.4 km
Semi-major
6,840.8 km
B*
5.4023e-4
RAAN
160.0920°
Arg perigee
98.9833°
Mean anomaly
261.1299°
Rev number
1,746

§ Raw data

STARLINK-374781 69260U 26117Y   26262.19879513  .00017929  00000+0  54023-3 0  99952 69260  53.1566 160.0920 0001143  98.9833 261.1299 15.34415453 17461

JSON: /api/v1/satellites/69260 · /tle

For live sub-satellite position, see the globe view (requires WebGL).

§ Visibility from observer

Set your observer location to see the next 7 days of passes ≥ 10°. The values pass through the URL so the page stays shareable.

No JS? Fill the form by hand. The geolocation button needs JavaScript.